#timestamp,LO_Frequency,Hit,StdDev 
1514199615.4,286047000.7,N
1514199635.2,286047000.3,N
1514199655.0,286047003.8,N
1514199655.9,286047003.8,N
1514199675.8,286047007.2,N
1514199695.6,286047005.2,N
1514199715.4,286047006.5,N
1514199735.3,286047007.8,N
1514199755.1,286047006.3,N
1514199775.8,286047005.6,N
1514199795.7,286047007.7,N
1514199815.5,286047010.7,N
1514199835.3,286047009.2,N
1514199855.2,286047010.8,N
1514199875.9,286047009.3,N
1514199895.7,286047009.5,N
1514199915.5,286047013.1,N
1514199935.4,286047010.9,N
1514199955.2,286047013.7,N
1514199975.0,286047014.7,N
1514199975.9,286047014.7,N
1514199995.8,286047013.0,N
1514200015.6,286047011.7,N
1514200035.4,286047010.3,N
1514200055.3,286047010.3,N
1514200075.1,286047013.7,N
1514200095.8,286047012.8,N
1514200115.7,286047013.4,N
1514200135.5,286047010.9,N
1514200155.3,286047013.8,Y
1514200175.2,286047005.9,P
1514200195.9,286047004.0,N
1514200215.7,286047009.6,P
1514200235.6,286047012.8,Y
1514200255.4,286047007.3,P
1514200275.2,286047005.4,P
1514200295.1,286047002.0,N
1514200296.0,286047002.0,N
1514200315.8,286047003.8,N
1514200335.6,286047003.9,N
1514200355.5,286047004.6,N
1514200375.3,286047005.2,N
1514200395.1,286047007.5,Y
1514200415.9,286047003.7,P
1514200435.7,286047004.4,P
1514200455.5,286046999.8,N
1514200475.4,286047000.6,N
1514200495.2,286047000.8,N
1514200515.0,286046998.7,N
1514200515.9,286046998.7,N
1514200535.7,286046999.0,N
1514200555.6,286047001.0,N
1514200575.4,286047002.1,N
1514200595.2,286047002.8,N
1514200615.1,286047003.6,N
1514200616.0,286047003.6,N
1514200635.8,286047003.6,N
1514200655.6,286047004.0,N
1514200675.5,286047000.1,N
1514200695.3,286046998.5,N
1514200715.1,286047002.3,N
1514200735.9,286046997.8,N
1514200755.7,286046993.6,N
1514200775.5,286046995.8,N
1514200795.3,286047000.7,N
1514200815.2,286047004.8,N
1514200835.0,286047005.6,N
1514200835.9,286047005.6,N
1514200855.7,286047000.2,N
1514200875.6,286046996.9,N
1514200895.4,286046998.6,N
1514200915.2,286047002.7,N
1514200935.1,286047005.3,N
1514200936.0,286047005.3,N
1514200955.8,286047003.5,N
1514200975.6,286047001.9,N
1514200995.5,286047002.7,N
1514201015.3,286047004.7,N
1514201035.1,286047004.6,N
1514201055.9,286047008.5,N
1514201075.7,286047009.5,N
1514201095.5,286047006.9,N
1514201115.3,286047005.8,N
1514201135.2,286047004.6,N
1514201155.0,286047004.2,N
1514201155.9,286047004.2,N
1514201175.7,286047003.1,N
1514201195.6,286047002.8,N
1514201215.4,286047003.9,N
1514201235.2,286047003.5,N
1514201255.1,286047004.7,N
1514201256.0,286047004.7,N
1514201275.8,286047005.7,N
1514201295.6,286047007.0,N
1514201315.5,286047006.9,N
1514201335.3,286047012.1,Y
1514201355.1,286047009.8,P
1514201375.9,286047009.4,P
1514201395.7,286047013.6,P
1514201415.5,286047013.8,Y
1514201435.4,286047001.5,P
1514201455.2,286046996.6,N
1514201475.0,286046996.5,N
1514201475.9,286046996.5,N
1514201495.8,286047000.6,N
1514201515.6,286047002.8,N
1514201535.4,286046998.2,N
1514201555.3,286046999.9,N
1514201575.1,286047005.3,N
1514201576.0,286047005.3,N
1514201595.8,286047007.0,N
1514201615.7,286047006.3,N
1514201635.5,286047005.2,N
1514201655.3,286047005.4,N
1514201675.1,286047002.9,N
1514201695.9,286047004.3,N
1514201715.7,286047002.5,N
1514201735.5,286047003.0,N
1514201755.4,286047006.6,N
1514201775.2,286047009.8,N
1514201795.0,286047008.1,N
1514201795.9,286047008.1,N
1514201815.8,286047010.5,N
1514201835.6,286047008.3,N
1514201855.4,286047008.0,N
1514201875.3,286047013.6,Y
1514201895.1,286047007.7,P
1514201896.0,286047007.7,P
1514201915.8,286047006.5,P
1514201935.7,286047008.7,Y
1514201955.5,286046998.8,P
1514201975.3,286046997.0,N
1514201995.2,286046997.2,N
1514202015.9,286046994.0,N
1514202035.7,286046997.2,N
1514202055.6,286046996.7,N
1514202075.4,286046997.6,N
1514202095.2,286046997.2,N
1514202115.0,286046995.5,N
1514202116.0,286046995.5,N
1514202135.8,286046997.6,N
1514202155.6,286046994.7,N
1514202175.4,286046994.8,N
1514202195.3,286046994.8,N
1514202215.1,286046992.3,N
1514202235.8,286046988.6,Y
1514202255.7,286046994.5,P
1514202275.5,286046995.0,P
1514202295.3,286046994.1,P
1514202315.2,286046995.6,Y
1514202335.0,286047000.4,P
1514202335.9,286047000.4,N
1514202355.7,286046998.2,N
1514202375.6,286047002.0,N
1514202395.4,286047002.1,N
1514202415.2,286046998.6,N
1514202435.1,286047000.0,N
1514202436.0,286047000.0,N
1514202455.8,286047003.1,N
1514202475.6,286047004.7,N
1514202495.5,286047000.0,N
1514202515.3,286046998.2,N
1514202535.1,286047001.1,N
1514202555.8,286046999.9,N
1514202575.7,286046995.1,N
1514202595.5,286046996.0,N
1514202615.3,286046996.9,N
1514202635.2,286047001.2,N
1514202655.9,286046998.7,N
1514202675.7,286046998.7,N
1514202695.6,286046997.4,N
1514202715.4,286046999.9,N
1514202735.2,286046999.0,N
1514202755.1,286047000.5,N
1514202756.0,286047000.5,N
1514202775.8,286047002.5,N
1514202795.6,286047003.7,N
1514202815.5,286047005.4,N
1514202835.3,286047007.5,N
1514202855.1,286047003.8,N
1514202875.8,286047002.8,N
1514202895.7,286046998.1,N
1514202915.5,286047001.2,N
1514202935.3,286046999.6,N
1514202955.2,286047000.9,N
1514202975.9,286047001.5,N
1514202995.7,286047003.8,N
1514203015.6,286047000.4,N
1514203035.4,286047007.2,N
1514203055.2,286047004.6,N
1514203075.1,286047003.0,N
1514203076.0,286047003.0,N
1514203095.8,286047008.0,N
1514203115.6,286047010.5,Y
1514203135.5,286047010.1,P
1514203155.3,286047011.7,N
1514203175.1,286047015.3,P
1514203195.9,286047013.0,N
